Location: *
(12.5665°N, 8.3471°E)
Time: 00:20:40
(UTC+00:00)

NOSS 3-1 (A) - Pass Details

Date: 23 September 2019
Orbit: 772 x 1440 km, 63.4° (Epoch: 08 October)

Event Time Altitude Azimuth Distance (km) Brightness Sun altitude
Rises 04:43:08 0° 201° (SSW) 3,255 6.0 -8.8°
Reaches altitude 10° 04:45:31 10° 200° (SSW) 2,310 5.3 -8.2°
Maximum altitude 04:50:43 78° 113° (ESE) 796 3.2 -6.9°
Drops below altitude 10° 04:56:09 10° 28° (NNE) 2,410 6.0 -5.6°
Sets 04:58:41 0° 27° (NNE) 3,407 6.8 -5.0°
